Lancaster, PA

6:39 AM EDT on October 19, 2019 (GMT -0400)
Lancaster

Weather History for KLNS - September, 2019

Change the Weather History Date:

Tuesday, September 17, 2019

  Actual Average Record
Temperature  
Mean Temperature 70 °F -  
Max Temperature 80 °F 76 °F 93 °F (1991)
Min Temperature 61 °F 54 °F 35 °F (1986)
Cooling Degree Days 5    
Growing Degree Days 20 (Base 50)    
Moisture  
Dew Point 54 °F    
Average Humidity 59    
Maximum Humidity 84    
Minimum Humidity 35    
Precipitation  
Precipitation 0.00 in - - ()
Sea Level Pressure  
Sea Level Pressure 30.11 in    
Wind  
Wind Speed 8 mph (NE)    
Max Wind Speed 13 mph    
Max Gust Speed -    
Visibility 10 miles    
Events      
Averages and records for this station are not official NWS values.
T = Trace of Precipitation, MM = Missing Value Source: NWS Daily Summary

Daily Weather History Graph

Daily Weather History Graph

Search for Another Location

Airport or City:

Astronomy

Sep. 17, 2019 Rise Set
Actual Time 6:47 AM EDT 7:11 PM EDT
Civil Twilight 6:20 AM EDT 7:38 PM EDT
Nautical Twilight 5:48 AM EDT 8:10 PM EDT
Astronomical Twilight 5:15 AM EDT 8:42 PM EDT
Moon 9:12 PM EDT (9/17) 9:50 AM EDT (9/17)
Length of Visible Light 13h 17m
Length of Day
12h 23m
Waning Gibbous, 89% of the Moon is Illuminated
Sep 17
Waning Gibbous
Sep 21
Last Quarter
Sep 28
New
Oct 5
First Quarter
Oct 13
Full

Hourly Weather History & Observations

Time (EDT) Temp. Dew Point Humidity Pressure Visibility Wind Dir Wind Speed Gust Speed Precip Events Conditions
1:53 AM 70.0 °F 64.0 °F 81% 30.05 in 10.0 mi NE 9.2 mph - N/A   Overcast
2:53 AM 68.0 °F 63.0 °F 84% 30.06 in 10.0 mi NE 6.9 mph - N/A   Mostly Cloudy
3:53 AM 68.0 °F 60.1 °F 76% 30.06 in 10.0 mi NE 9.2 mph - N/A   Mostly Cloudy
4:53 AM 66.9 °F 57.0 °F 70% 30.06 in 10.0 mi NE 8.1 mph - N/A   Mostly Cloudy
5:53 AM 66.0 °F 55.0 °F 68% 30.08 in 10.0 mi NE 10.4 mph - N/A   Scattered Clouds
6:53 AM 63.0 °F 54.0 °F 72% 30.10 in 10.0 mi NE 9.2 mph - N/A   Mostly Cloudy
7:53 AM 64.0 °F 54.0 °F 70% 30.12 in 10.0 mi NE 8.1 mph - N/A   Partly Cloudy
8:34 AM 66.9 °F 55.0 °F 66% 30.14 in 10.0 mi ENE 10.4 mph - N/A   Mostly Cloudy
8:53 AM 66.9 °F 55.0 °F 66% 30.14 in 10.0 mi ENE 9.2 mph - N/A   Mostly Cloudy
9:09 AM 68.0 °F 55.0 °F 63% 30.15 in 10.0 mi NE 10.4 mph - N/A   Scattered Clouds
9:53 AM 71.1 °F 55.9 °F 59% 30.16 in 10.0 mi NE 9.2 mph - N/A   Partly Cloudy
10:53 AM 70.0 °F 54.0 °F 57% 30.16 in 10.0 mi East 8.1 mph - N/A   Overcast
11:53 AM 73.9 °F 55.0 °F 52% 30.16 in 10.0 mi Variable 3.5 mph - N/A   Clear
1:53 PM 78.1 °F 52.0 °F 40% 30.13 in 10.0 mi East 8.1 mph - N/A   Clear
2:53 PM 79.0 °F 48.9 °F 35% 30.11 in 10.0 mi ENE 8.1 mph - N/A   Clear
3:53 PM 79.0 °F 48.9 °F 35% 30.10 in 10.0 mi NE 12.7 mph - N/A   Clear
4:53 PM 78.1 °F 50.0 °F 37% 30.09 in 10.0 mi Variable 5.8 mph - N/A   Clear
5:53 PM 77.0 °F 52.0 °F 42% 30.09 in 10.0 mi Calm Calm - N/A   Clear
6:53 PM 75.0 °F 52.0 °F 44% 30.10 in 10.0 mi NNE 3.5 mph - N/A   Clear
7:53 PM 68.0 °F 50.0 °F 52% 30.12 in 10.0 mi North 6.9 mph - N/A   Clear
8:53 PM 63.0 °F 51.1 °F 65% 30.13 in 10.0 mi Calm Calm - N/A   Clear
9:53 PM 64.9 °F 50.0 °F 58% 30.14 in 10.0 mi NE 4.6 mph - N/A   Clear
10:53 PM 61.0 °F 50.0 °F 67% 30.14 in 10.0 mi NNE 6.9 mph - N/A   Clear
11:53 PM 62.1 °F 48.9 °F 62% 30.14 in 10.0 mi Calm Calm - N/A   Clear